Weather History for Park Rapids, MN

Change the Weather History Date:

Monday, May 20, 2013

  Actual Average Record
Temperature  
Mean Temperature 54 °F -  
Max Temperature 57 °F 69 °F 88 °F (1972)
Min Temperature 50 °F 41 °F 24 °F (1967)
Degree Days  
Heating Degree Days 12    
Growing Degree Days 4 (Base 50)    
Moisture  
Dew Point 53 °F    
Average Humidity 95    
Maximum Humidity 100    
Minimum Humidity 88    
Precipitation  
Precipitation 0.83 in - - ()
Sea Level Pressure  
Sea Level Pressure 29.55 in    
Wind  
Wind Speed 11 mph (East)    
Max Wind Speed 16 mph    
Max Gust Speed 25 mph    
Visibility 6 miles    
Events Rain    
Averages and records for this station are not official NWS values.
T = Trace of Precipitation, MM = Missing Value Source: NWS Daily Summary

Daily Weather History Graph

Daily Weather History Graph

Search for Another Location

Airport:

Trip Planner

Search our weather history database for the weather conditions in past years. The results will help you decide how hot, cold, wet, or windy it might be!

Date:

Astronomy

May. 20, 2013 Rise Set
Actual Time 5:39 AM CDT 8:55 PM CDT
Civil Twilight 5:02 AM CDT 9:31 PM CDT
Nautical Twilight 4:14 AM CDT 10:20 PM CDT
Astronomical Twilight 3:14 AM CDT 11:21 PM CDT
Moon 3:46 PM CDT (5/20) 2:54 AM CDT (5/20)
Length of Visible Light 16h 29m
Length of Day
15h 15m
Waxing Gibbous, 75% of the Moon is Illuminated
May 20
Waxing Gibbous
May 24
Full
May 31
Last Quarter
Jun 8
New
Jun 16
First Quarter

Hourly Weather History & Observations

Time (CDT) Temp. Dew Point Humidity Pressure Visibility Wind Dir Wind Speed Gust Speed Precip Events Conditions
12:05 AM 57.2 °F 53.6 °F 88% 29.61 in 10.0 mi ENE 13.8 mph 24.2 mph 0.00 in   Overcast
12:23 AM 55.4 °F 53.6 °F 94% 29.61 in 4.0 mi East 11.5 mph 21.9 mph 0.00 in   Overcast
12:53 AM 55.9 °F 54.0 °F 93% 29.62 in 6.0 mi East 6.9 mph - 0.00 in   Overcast
1:02 AM 55.4 °F 53.6 °F 94% 29.62 in 5.0 mi East 8.1 mph - N/A   Overcast
1:15 AM 55.4 °F 55.4 °F 100% 29.61 in 2.0 mi East 6.9 mph - 0.01 in Rain Light Rain
1:53 AM 55.0 °F 54.0 °F 96% 29.59 in 2.5 mi East 6.9 mph - 0.04 in Rain Light Rain
2:02 AM 55.4 °F 53.6 °F 94% 29.59 in 3.0 mi East 6.9 mph - 0.01 in Rain Light Rain
2:12 AM 55.4 °F 53.6 °F 94% 29.58 in 2.5 mi East 8.1 mph - 0.01 in Rain Light Rain
2:53 AM 55.4 °F 53.6 °F 94% 29.56 in 2.5 mi East 6.9 mph - N/A Rain Light Rain
3:03 AM 55.4 °F 53.6 °F 94% 29.55 in 4.0 mi East 5.8 mph - 0.01 in Rain Light Rain
3:53 AM 55.0 °F 54.0 °F 96% 29.54 in 6.0 mi East 11.5 mph - 0.01 in   Overcast
4:33 AM 55.4 °F 53.6 °F 94% 29.54 in 2.0 mi East 9.2 mph - N/A   Overcast
4:53 AM 55.0 °F 54.0 °F 96% 29.53 in 2.0 mi East 12.7 mph - 0.00 in Rain Light Rain
5:34 AM 53.6 °F 53.6 °F 100% 29.53 in 5.0 mi East 12.7 mph - 0.08 in Rain Light Rain
5:53 AM 54.0 °F 53.1 °F 97% 29.52 in 7.0 mi East 13.8 mph - 0.08 in   Overcast
6:53 AM 54.0 °F 52.0 °F 93% 29.53 in 4.0 mi East 16.1 mph 21.9 mph 0.04 in Rain Light Rain
7:04 AM 53.6 °F 51.8 °F 94% 29.52 in 4.0 mi East 11.5 mph 24.2 mph 0.01 in Rain Light Rain
7:53 AM 53.1 °F 51.1 °F 93% 29.53 in 4.0 mi East 15.0 mph 25.3 mph 0.09 in Rain Light Rain
8:53 AM 53.1 °F 51.1 °F 93% 29.53 in 10.0 mi East 10.4 mph 21.9 mph 0.04 in Rain Light Rain
9:53 AM 52.0 °F 51.1 °F 97% 29.53 in 7.0 mi East 10.4 mph - 0.07 in Rain Light Rain
10:53 AM 53.1 °F 51.1 °F 93% 29.52 in 10.0 mi East 11.5 mph - 0.03 in   Overcast
11:07 AM 53.6 °F 51.8 °F 94% 29.51 in 1.8 mi East 10.4 mph - 0.01 in Rain Light Rain
11:16 AM 53.6 °F 51.8 °F 94% 29.51 in 3.0 mi East 10.4 mph - 0.01 in Rain Light Rain
11:53 AM 54.0 °F 52.0 °F 93% 29.52 in 2.5 mi East 10.4 mph - 0.02 in Rain Light Rain
12:03 PM 53.6 °F 51.8 °F 94% 29.51 in 8.0 mi East 10.4 mph - 0.00 in Rain Light Rain
12:37 PM 53.6 °F 51.8 °F 94% 29.51 in 10.0 mi East 10.4 mph - 0.00 in   Overcast
12:53 PM 53.1 °F 52.0 °F 96% 29.52 in 8.0 mi ESE 12.7 mph - 0.00 in Rain Light Rain
1:30 PM 53.6 °F 51.8 °F 94% 29.51 in 9.0 mi East 12.7 mph - 0.00 in   Overcast
1:53 PM 54.0 °F 52.0 °F 93% 29.52 in 5.0 mi ESE 11.5 mph 16.1 mph 0.01 in Rain Light Rain
2:12 PM 53.6 °F 53.6 °F 100% 29.51 in 1.8 mi East 8.1 mph - 0.03 in Rain Heavy Rain
2:24 PM 53.6 °F 53.6 °F 100% 29.51 in 3.0 mi East 11.5 mph - 0.05 in Rain Light Rain
2:53 PM 55.0 °F 53.1 °F 93% 29.52 in 10.0 mi East 11.5 mph - 0.05 in   Overcast
3:53 PM 55.9 °F 55.0 °F 97% 29.53 in 9.0 mi East 6.9 mph - N/A   Overcast
4:01 PM 55.4 °F 53.6 °F 94% 29.52 in 9.0 mi East 10.4 mph 16.1 mph N/A   Overcast
4:46 PM 55.4 °F 53.6 °F 94% 29.52 in 3.0 mi East 11.5 mph 18.4 mph 0.07 in Rain Rain
4:53 PM 55.9 °F 55.0 °F 97% 29.53 in 4.0 mi East 12.7 mph - 0.08 in Rain Rain
5:53 PM 57.0 °F 55.9 °F 96% 29.54 in 10.0 mi East 12.7 mph 20.7 mph 0.02 in   Overcast
6:53 PM 55.9 °F 54.0 °F 93% 29.57 in 10.0 mi East 16.1 mph - N/A   Overcast
7:04 PM 55.4 °F 53.6 °F 94% 29.57 in 1.5 mi East 10.4 mph 21.9 mph 0.11 in Rain Heavy Rain
7:24 PM 53.6 °F 53.6 °F 100% 29.56 in 3.0 mi East 15.0 mph 24.2 mph 0.22 in Rain Rain
7:45 PM 53.6 °F 51.8 °F 94% 29.56 in 6.0 mi East 16.1 mph 21.9 mph 0.24 in Rain Light Rain
7:53 PM 53.1 °F 52.0 °F 96% 29.57 in 6.0 mi East 15.0 mph 21.9 mph 0.25 in Rain Light Rain
8:14 PM 53.6 °F 51.8 °F 94% 29.58 in 10.0 mi East 12.7 mph 19.6 mph 0.00 in Rain Light Rain
8:53 PM 51.8 °F 50.0 °F 94% 29.59 in 10.0 mi East 13.8 mph 23.0 mph N/A Rain Light Rain
9:53 PM 51.1 °F 48.9 °F 92% 29.62 in 10.0 mi East 11.5 mph 19.6 mph 0.00 in   Overcast
10:22 PM 50.0 °F 48.2 °F 94% 29.60 in 10.0 mi East 8.1 mph 23.0 mph N/A   Overcast
10:53 PM 50.0 °F 48.9 °F 96% 29.62 in 10.0 mi East 10.4 mph - N/A   Overcast
11:53 PM 50.0 °F 48.0 °F 93% 29.62 in 10.0 mi East 8.1 mph - N/A   Overcast